User: anonymous   Login
Location: Vancouver
(49.2500°N, 123.1330°W)
Time: 19:32:43
(UTC-07:00)
Language:

Iridium 21 - Orbit

View from above orbital plane
View from above orbital plane
View from above satellite
View from above satellite

Ground track
Ground track

The orbit data is extracted from the following two-line orbital elements,

1 25778U 99032B   17146.35075243 +.00000186 +00000-0 +59366-4 0  9998
2 25778 086.3991 233.0768 0002326 098.5905 261.5554 14.34223012944989
Epoch (UTC): 26 May 2017 08:25:05
Eccentricity: 0.0002326
inclination: 86.3991°
perigee height: 776 km
apogee height: 779 km
right ascension of ascending node: 233.0768°
argument of perigee: 98.5905°
revolutions per day: 14.34223012
mean anomaly at epoch: 261.5554°
orbit number at epoch: 94498

The dashed part of the orbit path shows where the satellite is in the earth's shadow,  

DLR